Showing default

COSMOS 2269, 23000

Orbit data source: Space-Track

COSMOS 2269, 23000 is a payload satellite owned by VKS (CIS) in LEO that was launched on Sat, 12 Feb 1994 UTC via a TSIKLON-3 launch vehicle from the Plesetsk Missile And Space Complex (PKMTR). Payload-class satellites include a variety of spacecraft equipped with specific instruments for various scientific and technological missions. These include communications satellites like Starlink; space stations such as the ISS; scientific satellites like the Hubble; Earth observation satellites from companies like Planet Labs, Umbra, and HawkEye 360; GPS; miniature CubeSats for education and research; and military/defense satellites.

Loading next visibility...
Identifier
23000, 1994-011B
Orbit
LEO
Last TLE update
12 hours ago
Origin
Manufacturer
NPO PM
Mission
Defense Communications
Bus & Motor
STRELA-3, Unknown motor
Mass
225 kg wet, 225 kg dry
Launch date (UTC)
1994-02-12 (31 years ago)
Launch vehicle
TSIKLON-3
Launch site
Plesetsk Missile And Space Complex (PKMTR)
Object type
Payload
Rocket body
Debris
Shape & HBR
Cyl, 1.6 m
Radar Cross Section
1.257 m², Large (>1 m²)

Expand to show TLE details & history

TLE from 12 hours ago
0 COSMOS 2269
1 23000U 94011B   25129.31670303  .00000011  00000-0 -36193-6 0  9993
2 23000  82.5701 218.9838 0007309  35.3598  27.3721 12.61930742438733
Epoch: 2025-05-09T07:36Z
Definitive object data (Epoch: 2025-05-09T07:36:03.141Z)
Latitude
61.93568°
Longitude
-108.31708°
Altitude
1,420.497 km
Speed
7.159 km/s
True Right ascension
15h 32m 16s
True Declination
61° 48' 17"
Sunlit
Object was in daylight at TLE epoch
Visualization TLE readout
Latitude
81.73374°
Longitude
-5.98823°
Altitude
1,425.591 km
Speed
7.156 km/s
Apparent Right ascension
16h 14m 52s
Apparent Declination
37° 28' 38"
Sunlit
Object is in daylight
Visualization observer readout
Local Sidereal Time
03:21:47
Azimuth
349.28° N
Elevation
-11.654°
Doppler factor
1
Orbital elements
Apogee altitude
1,418.001 km
Perigee altitude
1,406.613 km
Semi-major axis
7,790.444 km
Eccentricity
0.0007309
Inclination
82.5701°
RAAN
218.9838°
Arg. of periapsis
35.3598°
True anomaly
27.41064°
Mean anomaly
27.3721°
Eccentric anomaly
27.39137°
Mean motion
3.15646 °/min
BSTAR
-3.6193e-7
Orbital period
114.05 mins
Loading maneuver chart data...
Loading SW <> Apogee altitude chart data...
Loading historical data...
Loading historical data...
Loading historical data...
Loading historical data...
Loading historical data...
Loading historical data...
Loading historical data...

COSMOS 2269 Visibility forecast

Observer location: undefined°, undefined°

Span
Click to sort rows by Start time (UTC) header in descending order
Start Az.
Max El. time (UTC)
Max El. Az.
Max El.
End time (UTC)
End Az.
11 mins2025-05-09 19:19:51.808Z324.572° NNW2025-05-09 19:25:51.808Z272.329° WNW23.665°2025-05-09 19:30:51.808Z230.89° WSW
15 mins2025-05-10 06:11:51.808Z168.452° S2025-05-10 06:18:51.808Z91.068° ESE41.755°2025-05-10 06:26:51.808Z14.148° NNE
12 mins2025-05-10 08:08:51.808Z242.788° WSW2025-05-10 08:14:51.808Z296.204° NW24.029°2025-05-10 08:20:51.808Z344.696° N
11 mins2025-05-10 16:14:51.808Z23.644° NE2025-05-10 16:19:51.808Z67.742° E23.089°2025-05-10 16:25:51.808Z117.529° SE
14 mins2025-05-10 18:08:51.808Z344.995° N2025-05-10 18:15:51.808Z255.053° W42.493°2025-05-10 18:22:51.808Z188.701° SSW
|